[[{"header":{"parameterUnit":"m.s-1","parameterCategory":1,"la1":30.2991,"la2":30.254,"lo1":-89.0895,"lo2":-89.0444,"dy":0.0017,"dx":0.0017,"nx":28,"ny":28,"refTime":"2024-09-28T09:00:00:Z","depth":0,"parameterNumber":2,"parameterNumberName":"U-component_of_WINDS"},"data":[0,0,0,0,0,0,0,0,0,0,0,0,0,0,0,0,0,0,0,0,0,0,0,0,0,0,0,0,0,0,0,0,0,0,0,0,0,0,0,0,0,0,0,0,0,0,0,0,0,0,0,0,0,0,0,0,0,0,4.7948,4.795,0,4.8142,4.8144,4.8146,4.8071,4.8066,4.8062,4.8057,4.826,4.8269,4.8278,0,0,0,0,0,0,0,0,0,0,0,0,0,4.7513,4.7522,4.7948,4.795,4.7952,4.8141,4.8144,4.8147,4.8071,4.8066,4.806,4.8055,4.8256,4.8268,4.8279,0,0,0,0,0,0,0,0,0,0,0,0,0,4.7704,4.7524,4.7947,4.7938,4.7939,4.8141,4.8144,4.8147,4.8072,4.8066,4.8059,4.8053,4.8253,4.8267,4.8281,4.8505,0,0,4.8325,4.8331,0,0,0,0,0,0,0,0,4.7693,4.772,4.7937,4.7939,4.794,4.8075,4.8065,4.8267,4.8074,4.8022,4.8057,4.8049,4.8204,4.8222,4.8273,4.8514,4.8523,4.8326,4.8335,4.8341,4.8345,0,0,0,0,0,0,0,4.768,4.7711,4.8024,4.794,4.7942,4.7924,4.7944,4.8103,4.8149,4.8026,4.8021,4.8045,4.8203,4.8259,4.8277,4.8526,4.8326,4.8338,4.8347,4.8353,4.8957,4.8964,0,0,0,0,0,0,4.7666,4.7701,4.8018,4.803,4.7797,4.7937,4.7959,4.8039,4.8146,4.8156,4.805,4.804,4.8238,4.8261,4.8284,4.8551,4.8341,4.8354,4.8362,4.895,4.8959,4.8967,0,0,0,0,0,0,4.7657,4.7695,4.801,4.7864,4.7903,4.7952,4.8042,4.8046,4.8102,4.8165,4.8173,4.8099,4.8234,4.8264,4.8449,4.8557,4.8361,4.8374,4.8941,4.8953,4.8963,4.9088,0,0,0,0,0,0,4.7645,4.7692,4.7778,4.7867,4.7911,4.8173,4.8048,4.8055,4.8126,4.8115,4.8213,4.8222,4.8231,4.8428,4.8464,4.8573,4.8385,4.8932,4.8946,4.8959,4.9074,4.9102,4.9125,0,0,0,0,0,4.763,4.7807,4.7783,4.7821,4.8019,4.8179,4.8204,4.8209,4.8135,4.8221,4.8261,4.8219,4.854,4.8448,4.8487,4.8602,4.8925,4.8942,4.8958,4.9063,4.9096,4.9125,0,0,0,0,0,0,4.7732,4.7819,4.7793,4.8004,4.8084,4.8166,4.8275,4.8245,4.835,4.8335,4.8338,4.8361,4.8551,4.8596,4.8492,4.8823,4.8721,4.8746,4.8787,4.8819,4.8844,4.8829,4.8397,0,0,0,0,0,4.7778,4.79,4.797,4.815,4.8191,4.8226,4.8296,4.8293,4.8377,4.8411,4.8465,4.8549,4.8668,4.8746,4.886,4.9081,4.9099,4.9179,4.9204,4.9225,4.9247,4.9363,4.9399,4.9022,4.9022,4.9021,0,0,4.7877,4.7939,4.8016,4.8171,4.8233,4.8359,4.8255,4.8394,4.8487,4.8432,4.8609,4.8652,4.8746,4.8949,4.9041,4.8992,4.9355,4.9246,4.9262,4.9273,4.9384,4.942,4.9451,4.9033,4.9031,4.9029,0,0,4.8119,4.818,4.8334,4.8398,4.8492,4.8514,4.8551,4.8637,4.8662,4.884,4.88,4.8912,4.9118,4.9185,4.9247,4.9512,4.9476,4.9549,4.9682,4.9796,4.9826,4.9852,4.9944,4.9977,4.9571,4.9571,4.9571,0,4.823,4.8417,4.8418,4.8559,4.8627,4.8581,4.8737,4.8799,4.8927,4.8975,4.8918,4.9173,4.9233,4.945,4.9514,4.9566,4.9607,4.9538,4.9821,4.9848,4.9872,4.996,4.9995,4.9579,4.9578,4.9578,4.9577,0,4.8547,4.8677,4.8791,4.8912,4.8994,4.9142,4.9164,4.9247,4.9236,4.9264,4.9444,4.9515,4.964,4.9692,4.9684,4.9907,4.9873,4.9819,4.9716,4.9916,4.9998,5.0032,4.9591,4.9588,4.9585,4.9584,0,0,4.886,4.8977,4.9019,4.9072,4.9171,4.9273,4.9418,4.9538,4.9608,4.9697,4.9818,4.9992,4.9942,5.0011,5.0011,5.0111,5.0313,5.0044,5.0046,5.0089,5.056,5.0598,5.0637,5.029,5.0297,5.0302,5.0551,0,4.9108,4.936,4.9364,4.9597,4.9716,4.9673,4.9799,4.9874,4.9904,5.0009,5.0042,5.0164,5.009,5.0131,5.0229,5.0268,5.0407,5.025,5.0401,5.0407,5.0377,5.068,5.0722,5.0953,5.0583,5.0589,5.0593,0,4.9431,4.9528,4.9771,4.985,4.9901,5.0014,5.0123,5.0225,5.0309,5.0323,5.0399,5.0383,5.053,5.0423,5.0625,5.0518,5.0581,5.0609,5.0618,5.0631,5.051,5.0699,5.1028,5.1061,5.0644,5.064,5.0636,0,4.9631,4.9822,4.9992,5.0039,5.0137,5.0217,5.0261,5.0338,5.0409,5.0506,5.0551,5.0665,5.0726,5.0814,5.0827,5.0749,5.103,5.0925,5.1044,5.1044,5.1104,5.11,5.1445,5.1149,5.1148,5.1147,5.1147,0,4.9906,5.0056,5.0082,5.0186,5.0353,5.0356,5.052,5.0559,5.0627,5.0737,5.0708,5.0813,5.0826,5.0934,5.0946,5.111,5.1139,5.1154,5.1155,5.1155,5.1153,5.1194,5.1178,5.1157,5.1155,5.1153,5.1151,0,5.0157,5.0181,5.0362,5.0439,5.0461,5.058,5.0646,5.0745,5.0771,5.0911,5.0944,5.0985,5.111,5.1133,5.1282,5.129,5.1484,5.1471,5.1455,5.1453,5.157,5.1558,5.1952,5.2003,5.1676,5.1679,5.1682,0,5.033,5.0444,5.0532,5.0603,5.0651,5.0766,5.0838,5.0845,5.0921,5.1023,5.111,5.1231,5.1329,5.1531,5.1574,5.1687,5.1674,5.1804,5.1691,5.1686,5.1672,5.1664,5.1674,5.1826,5.1829,5.1832,5.1834,0,5.0634,5.0639,5.0743,5.0851,5.0936,5.1022,5.1103,5.1163,5.1181,5.1268,5.1394,5.147,5.1619,5.174,5.1852,5.1898,5.1869,5.187,5.1903,5.1903,5.1888,5.1895,5.1512,5.186,5.1858,5.1856,5.1855,5.1853,5.0849,5.0947,5.1023,5.1139,5.12,5.1276,5.1372,5.1408,5.1513,5.1634,5.1633,5.1771,5.1849,5.1996,5.2049,5.2157,5.2115,5.2164,5.2176,5.2187,5.2197,5.1873,5.2178,5.2177,5.2176,5.2176,5.2175,0,5.1149,5.1195,5.1301,5.1414,5.1505,5.1469,5.1556,5.1634,5.1755,5.183,5.1926,5.207,5.2186,5.2238,5.2352,5.2428,5.2418,5.2458,5.2451,5.2461,5.2229,5.2187,5.2464,5.2464,5.2464,5.2464,5.2464,5.2464,5.1315,5.1477,5.1491,5.1683,5.1729,5.1862,5.1915,5.1984,5.2043,5.2204,5.23,5.2332,5.2397,5.2516,5.262,5.2632,5.2675,5.272,5.2726,5.2508,5.2478,5.245,5.2411,5.273,5.2731,5.2949,5.2951,5.2953]},{"header":{"parameterUnit":"m.s-1","parameterCategory":1,"la1":30.2991,"la2":30.254,"lo1":-89.0895,"lo2":-89.0444,"dy":0.0017,"dx":0.0017,"nx":28,"ny":28,"refTime":"2024-09-28T09:00:00:Z","depth":0,"parameterNumber":3,"parameterNumberName":"V-component_of_WINDS"},"data":[0,0,0,0,0,0,0,0,0,0,0,0,0,0,0,0,0,0,0,0,0,0,0,0,0,0,0,0,0,0,0,0,0,0,0,0,0,0,0,0,0,0,0,0,0,0,0,0,0,0,0,0,0,0,0,0,0,0,1.9793,1.9794,0,1.9874,1.9875,1.9876,1.9824,1.9822,1.982,1.9817,1.9904,1.9908,1.9913,0,0,0,0,0,0,0,0,0,0,0,0,0,1.9593,1.9597,1.9793,1.9794,1.9795,1.9874,1.9875,1.9876,1.9825,1.9822,1.9819,1.9816,1.9902,1.9907,1.9913,0,0,0,0,0,0,0,0,0,0,0,0,0,1.9678,1.9598,1.9792,1.9778,1.9778,1.9874,1.9875,1.9877,1.9825,1.9822,1.9818,1.9815,1.99,1.9907,1.9914,2.0029,0,0,1.9935,1.9938,0,0,0,0,0,0,0,0,1.9673,1.9685,1.9779,1.978,1.9779,1.9835,1.9836,1.9928,1.9826,1.9808,1.9817,1.9813,1.9884,1.9892,1.9915,2.0033,2.0037,1.9935,1.9939,1.9942,1.9944,0,0,0,0,0,0,0,1.9667,1.9681,1.9825,1.9781,1.9781,1.9768,1.9776,1.9854,1.9865,1.9809,1.9805,1.9816,1.9883,1.9909,1.9917,2.0038,1.9935,1.9941,1.9945,1.9948,2.0252,2.0256,0,0,0,0,0,0,1.9662,1.9677,1.9822,1.9827,1.9716,1.9775,1.9784,1.9821,1.9864,1.9867,1.9819,1.9813,1.9899,1.9909,1.992,2.0056,1.9942,1.9949,1.9953,2.0248,2.0253,2.0257,0,0,0,0,0,0,1.9658,1.9676,1.9819,1.9751,1.9768,1.9782,1.9824,1.9825,1.985,1.9872,1.9874,1.9843,1.9897,1.991,2.0002,2.0059,1.9952,1.9958,2.0243,2.025,2.0255,2.0331,0,0,0,0,0,0,1.9652,1.9674,1.9718,1.9752,1.9772,1.9899,1.9828,1.9829,1.9862,1.9855,1.9895,1.9898,1.9895,1.9992,2.0008,2.0066,1.9963,2.0238,2.0246,2.0253,2.0324,2.0339,2.0352,0,0,0,0,0,1.9646,1.9737,1.9721,1.9739,1.9827,1.9903,1.9914,1.9908,1.9867,1.9911,1.9924,1.9896,2.005,2.0001,2.002,2.0081,2.0235,2.0244,2.0253,2.0317,2.0336,2.0352,0,0,0,0,0,0,1.9711,1.9742,1.9724,1.9829,1.9864,1.9894,1.995,1.9928,1.9976,1.9968,1.9959,1.9969,2.0064,2.0081,2.0027,2.0193,2.0136,2.0149,2.0179,2.0197,2.0211,2.0205,1.9969,0,0,0,0,0,1.9737,1.9796,1.982,1.991,1.9928,1.9936,1.9969,1.9961,1.9997,2.0011,2.0032,2.0068,2.0124,2.0161,2.0214,2.0326,2.0333,2.0377,2.0391,2.0402,2.0414,2.0473,2.0492,2.0287,2.0287,2.0286,0,0,1.9793,1.9817,1.9855,1.9924,1.995,2.0011,1.9949,2.0016,2.0061,2.0022,2.0109,2.0125,2.0165,2.0266,2.0312,2.0284,2.0472,2.0414,2.0423,2.0428,2.0484,2.0504,2.0521,2.0293,2.0292,2.0291,0,0,1.9926,1.995,2.0028,2.0054,2.0093,2.0097,2.0116,2.0149,2.0158,2.0245,2.0216,2.027,2.0367,2.0396,2.0423,2.0565,2.0541,2.0582,2.0657,2.0715,2.0731,2.0745,2.0795,2.0813,2.0594,2.0594,2.0594,0,1.9991,2.008,2.0071,2.0139,2.017,2.0136,2.0214,2.0241,2.0296,2.0318,2.0285,2.0405,2.043,2.0537,2.0571,2.0595,2.0616,2.0578,2.0729,2.0743,2.0757,2.0804,2.0823,2.0598,2.0598,2.0597,2.0597,0,2.0157,2.022,2.0278,2.033,2.0368,2.0442,2.0443,2.0482,2.047,2.0478,2.0566,2.0594,2.0651,2.0676,2.0666,2.0782,2.0763,2.073,2.0672,2.0781,2.0825,2.0844,2.0605,2.0604,2.0602,2.0601,0,0,2.0335,2.0379,2.0401,2.0423,2.0463,2.0512,2.0583,2.0638,2.0671,2.071,2.0769,2.0851,2.0821,2.0852,2.0845,2.0895,2.1004,2.0856,2.0857,2.0882,2.1132,2.1157,2.1178,2.0988,2.0992,2.0994,2.1129,0,2.0469,2.0593,2.0585,2.0702,2.0759,2.0727,2.0789,2.082,2.0828,2.0878,2.0888,2.0946,2.0901,2.092,2.0968,2.0981,2.1054,2.0971,2.1044,2.1046,2.1035,2.1201,2.1228,2.1353,2.1146,2.1149,2.1151,0,2.0643,2.0686,2.0808,2.0837,2.0861,2.0917,2.0966,2.1014,2.1048,2.1051,2.1085,2.1069,2.1141,2.108,2.1179,2.1122,2.1151,2.1162,2.1166,2.1173,2.1106,2.1212,2.1393,2.1412,2.1179,2.1176,2.1174,0,2.0759,2.0848,2.0932,2.0952,2.0989,2.1029,2.1046,2.1077,2.111,2.1153,2.1174,2.1225,2.1253,2.1292,2.129,2.1247,2.139,2.133,2.1394,2.1395,2.1427,2.1425,2.1615,2.1446,2.1445,2.1445,2.1445,0,2.091,2.0986,2.0984,2.1036,2.1119,2.111,2.1193,2.1206,2.1233,2.1287,2.1262,2.1313,2.1307,2.1358,2.1357,2.1438,2.1451,2.1455,2.1454,2.1458,2.1457,2.1477,2.1468,2.145,2.1449,2.1448,2.1447,0,2.1055,2.1057,2.1146,2.1173,2.1181,2.1241,2.1264,2.1313,2.1319,2.1387,2.1402,2.1412,2.1471,2.1472,2.154,2.1539,2.1638,2.1627,2.1627,2.1624,2.1689,2.1682,2.1898,2.1925,2.1739,2.174,2.1742,0,2.1151,2.1208,2.124,2.1274,2.1293,2.1348,2.1381,2.1373,2.1408,2.1451,2.1495,2.1551,2.1595,2.169,2.1704,2.1755,2.1745,2.1817,2.1753,2.1754,2.1746,2.1742,2.1747,2.183,2.1832,2.1833,2.1835,0,2.1321,2.1318,2.1366,2.1415,2.1454,2.1492,2.1527,2.1556,2.1552,2.1593,2.1652,2.1687,2.1755,2.1811,2.186,2.1878,2.1856,2.1855,2.1872,2.1876,2.1873,2.1875,2.166,2.185,2.1848,2.1847,2.1847,2.1846,2.1444,2.1492,2.1522,2.1576,2.1601,2.1634,2.1681,2.1692,2.1741,2.1795,2.1787,2.1853,2.1885,2.1948,2.197,2.2022,2.1997,2.2023,2.2029,2.2035,2.2042,2.1865,2.2031,2.203,2.203,2.203,2.2029,0,2.1612,2.1629,2.1679,2.1728,2.177,2.1744,2.1781,2.1818,2.1876,2.1907,2.195,2.2018,2.2071,2.2088,2.214,2.2178,2.2169,2.2191,2.2189,2.2193,2.2062,2.2041,2.2198,2.2198,2.2198,2.2198,2.2198,2.2198,2.1705,2.1785,2.1786,2.1879,2.1895,2.1959,2.1982,2.2012,2.2036,2.2112,2.2156,2.2166,2.2191,2.2244,2.2292,2.2296,2.2316,2.2343,2.2342,2.2219,2.2202,2.2186,2.2167,2.2347,2.2347,2.2469,2.247,2.2471]}]]